When you browse on this site, cookies collect data to enhance your experience and personalize the content and advertising you see.
Visit our Privacy Policy to learn more. By continuing to use the site, you agree to this use of cookies and data.
  • In Latvia
  • List of Countries
  • For 7 days
  • Water Temperature
  • Weather Map
  • Weather Widgets
  • user-avatar
    Login

    Hourly Weather Neshville

    Today, 22 November, Friday

    Time Temperature Precipitation Wind Pressure Humidity
    00:00 +14°C° 0.1 mm 4 mps 750 mmHg 75%
    01:00 +14°C° 1.3 mm 3 mps 750 mmHg 79%
    02:00 +13°C° 1.3 mm 3 mps 749 mmHg 84%
    03:00 +13°C° 1.3 mm 3 mps 749 mmHg 89%
    04:00 +13°C° 7.5 mm 3 mps 750 mmHg 91%
    05:00 +13°C° 7.5 mm 3 mps 750 mmHg 94%
    06:00 +13°C° 7.5 mm 3 mps 750 mmHg 96%
    07:00 +13°C° 2.6 mm 2 mps 751 mmHg 95%
    08:00 +12°C° 2.6 mm 2 mps 751 mmHg 93%
    09:00 +10°C° 2.6 mm 2 mps 751 mmHg 92%
    10:00 +10°C° 0.1 mm 3 mps 751 mmHg 90%
    11:00 +10°C° 0.1 mm 3 mps 751 mmHg 89%
    12:00 +10°C° 0.1 mm 3 mps 751 mmHg 87%
    13:00 +10°C° 0 mm 3 mps 751 mmHg 87%
    14:00 +10°C° 0 mm 3 mps 750 mmHg 86%
    15:00 +10°C° 0 mm 3 mps 750 mmHg 85%
    16:00 +10°C° 0 mm 3 mps 750 mmHg 85%
    17:00 +10°C° 0 mm 2 mps 751 mmHg 86%
    18:00 +10°C° 0 mm 2 mps 751 mmHg 86%
    19:00 +9°C° 0 mm 2 mps 751 mmHg 87%
    20:00 +9°C° 0 mm 2 mps 750 mmHg 88%
    21:00 +9°C° 0 mm 2 mps 750 mmHg 90%
    22:00 +9°C° 0 mm 2 mps 750 mmHg 90%
    23:00 +9°C° 0 mm 2 mps 749 mmHg 90%

    Tomorrow, 23 November, Saturday

    Time Temperature Precipitation Wind Pressure Humidity
    00:00 +9°C° 0 mm 2 mps 749 mmHg 90%
    01:00 +9°C° 0.1 mm 2 mps 748 mmHg 91%
    02:00 +10°C° 0.1 mm 2 mps 747 mmHg 92%
    03:00 +11°C° 0.1 mm 1 mps 747 mmHg 93%
    04:00 +11°C° 0.3 mm 1 mps 746 mmHg 94%
    05:00 +11°C° 0.3 mm 0 mps 745 mmHg 95%
    06:00 +11°C° 0.3 mm 0 mps 745 mmHg 96%
    07:00 +12°C° 0.2 mm 1 mps 745 mmHg 96%
    08:00 +13°C° 0.2 mm 1 mps 745 mmHg 96%
    09:00 +13°C° 0.2 mm 2 mps 745 mmHg 95%
    10:00 +12°C° 0 mm 3 mps 745 mmHg 93%
    11:00 +11°C° 0 mm 4 mps 744 mmHg 90%
    12:00 +10°C° 0 mm 5 mps 744 mmHg 87%
    13:00 +11°C° 0 mm 4 mps 744 mmHg 86%
    14:00 +11°C° 0 mm 4 mps 745 mmHg 85%
    15:00 +10°C° 0 mm 4 mps 745 mmHg 83%
    16:00 +10°C° 0 mm 4 mps 745 mmHg 84%
    17:00 +8°C° 0 mm 4 mps 746 mmHg 84%
    18:00 +8°C° 0 mm 3 mps 747 mmHg 85%
    19:00 +8°C° 0 mm 3 mps 747 mmHg 84%
    20:00 +8°C° 0 mm 3 mps 747 mmHg 84%
    21:00 +7°C° 0 mm 3 mps 748 mmHg 83%
    22:00 +7°C° 0 mm 3 mps 748 mmHg 82%
    23:00 +7°C° 0 mm 3 mps 748 mmHg 81%

    Day after tomorrow, 24 November, Sunday

    Time Temperature Precipitation Wind Pressure Humidity
    00:00 +7°C° 0 mm 3 mps 748 mmHg 80%
    01:00 +5°C° 0 mm 3 mps 748 mmHg 80%
    02:00 +5°C° 0 mm 2 mps 748 mmHg 81%
    03:00 +4°C° 0 mm 2 mps 748 mmHg 82%
    04:00 +4°C° 0 mm 2 mps 748 mmHg 83%
    05:00 +4°C° 0 mm 1 mps 748 mmHg 84%
    06:00 +4°C° 0 mm 1 mps 748 mmHg 85%
    07:00 +5°C° 0 mm 1 mps 748 mmHg 79%
    08:00 +6°C° 0 mm 1 mps 749 mmHg 74%
    09:00 +8°C° 0 mm 1 mps 749 mmHg 68%
    10:00 +9°C° 0 mm 1 mps 748 mmHg 65%
    11:00 +9°C° 0 mm 2 mps 748 mmHg 61%
    12:00 +10°C° 0 mm 2 mps 747 mmHg 57%
    13:00 +10°C° 0 mm 3 mps 747 mmHg 58%
    14:00 +10°C° 0 mm 3 mps 747 mmHg 60%
    15:00 +11°C° 0 mm 3 mps 746 mmHg 61%
    16:00 +9°C° 0 mm 2 mps 747 mmHg 66%
    17:00 +8°C° 0 mm 2 mps 747 mmHg 72%
    18:00 +8°C° 0 mm 1 mps 747 mmHg 77%
    19:00 +8°C° 0 mm 1 mps 747 mmHg 79%
    20:00 +6°C° 0 mm 2 mps 747 mmHg 81%
    21:00 +6°C° 0 mm 2 mps 747 mmHg 83%
    22:00 +6°C° 0 mm 2 mps 747 mmHg 84%
    23:00 +6°C° 0 mm 2 mps 747 mmHg 85%

    25 November, Monday

    Time Temperature Precipitation Wind Pressure Humidity
    00:00 +5°C° 0 mm 2 mps 747 mmHg 86%
    01:00 +5°C° 0 mm 2 mps 747 mmHg 87%
    02:00 +5°C° 0 mm 2 mps 747 mmHg 87%
    03:00 +5°C° 0 mm 2 mps 746 mmHg 88%
    04:00 +5°C° 0 mm 2 mps 747 mmHg 89%
    05:00 +5°C° 0 mm 2 mps 747 mmHg 89%
    06:00 +4°C° 0 mm 2 mps 747 mmHg 90%
    07:00 +6°C° 0 mm 2 mps 747 mmHg 86%
    08:00 +7°C° 0 mm 3 mps 747 mmHg 82%
    09:00 +8°C° 0 mm 3 mps 747 mmHg 79%
    10:00 +10°C° 0 mm 3 mps 747 mmHg 73%
    11:00 +12°C° 0 mm 3 mps 746 mmHg 67%
    12:00 +14°C° 0 mm 3 mps 746 mmHg 61%
    13:00 +14°C° 0 mm 3 mps 746 mmHg 62%
    14:00 +14°C° 0 mm 3 mps 745 mmHg 63%
    15:00 +14°C° 0 mm 3 mps 745 mmHg 63%
    16:00 +13°C° 0 mm 3 mps 745 mmHg 69%
    17:00 +12°C° 0 mm 3 mps 746 mmHg 75%
    18:00 +10°C° 0 mm 3 mps 746 mmHg 81%
    19:00 +10°C° 0 mm 3 mps 746 mmHg 82%
    20:00 +10°C° 0 mm 3 mps 746 mmHg 83%
    21:00 +9°C° 0 mm 3 mps 747 mmHg 84%
    22:00 +9°C° 0 mm 3 mps 747 mmHg 85%
    23:00 +9°C° 0 mm 3 mps 747 mmHg 86%

    26 November, Tuesday

    Time Temperature Precipitation Wind Pressure Humidity
    00:00 +8°C° 0 mm 3 mps 747 mmHg 87%
    01:00 +8°C° 0 mm 3 mps 747 mmHg 87%
    02:00 +8°C° 0 mm 3 mps 747 mmHg 88%
    03:00 +8°C° 0 mm 3 mps 747 mmHg 88%
    04:00 +8°C° 0 mm 3 mps 747 mmHg 87%
    05:00 +8°C° 0 mm 3 mps 747 mmHg 86%
    06:00 +7°C° 0 mm 4 mps 746 mmHg 85%
    07:00 +8°C° 0 mm 4 mps 747 mmHg 79%
    08:00 +9°C° 0 mm 5 mps 747 mmHg 73%
    09:00 +11°C° 0 mm 6 mps 747 mmHg 67%
    10:00 +13°C° 0 mm 6 mps 747 mmHg 64%
    11:00 +14°C° 0 mm 6 mps 746 mmHg 61%
    12:00 +15°C° 0 mm 6 mps 746 mmHg 58%
    13:00 +15°C° 0 mm 6 mps 745 mmHg 60%
    14:00 +15°C° 0 mm 6 mps 745 mmHg 62%
    15:00 +15°C° 0 mm 6 mps 744 mmHg 64%
    16:00 +15°C° 0 mm 6 mps 745 mmHg 67%
    17:00 +15°C° 0 mm 6 mps 745 mmHg 71%
    18:00 +15°C° 0 mm 6 mps 745 mmHg 75%
    19:00 +15°C° 0.1 mm 6 mps 746 mmHg 78%
    20:00 +16°C° 0.1 mm 6 mps 746 mmHg 81%
    21:00 +16°C° 0.1 mm 6 mps 746 mmHg 84%
    22:00 +16°C° 0.2 mm 5 mps 747 mmHg 87%
    23:00 +16°C° 0.2 mm 5 mps 748 mmHg 89%

    27 November, Wednesday

    Time Temperature Precipitation Wind Pressure Humidity
    00:00 +17°C° 0.2 mm 4 mps 749 mmHg 92%
    01:00 +13°C° 0.2 mm 5 mps 750 mmHg 88%
    02:00 +10°C° 0.2 mm 5 mps 751 mmHg 84%
    03:00 +8°C° 0.2 mm 5 mps 752 mmHg 80%
    04:00 +7°C° 0 mm 5 mps 753 mmHg 79%
    05:00 +6°C° 0 mm 4 mps 754 mmHg 79%
    06:00 +6°C° 0 mm 4 mps 755 mmHg 79%
    07:00 +6°C° 0 mm 4 mps 755 mmHg 76%
    08:00 +6°C° 0 mm 4 mps 756 mmHg 74%
    09:00 +6°C° 0 mm 4 mps 757 mmHg 71%
    10:00 +7°C° 0 mm 4 mps 757 mmHg 68%
    11:00 +8°C° 0 mm 4 mps 757 mmHg 64%
    12:00 +10°C° 0 mm 4 mps 757 mmHg 61%
    13:00 +10°C° 0 mm 4 mps 757 mmHg 61%
    14:00 +11°C° 0 mm 4 mps 757 mmHg 60%
    15:00 +11°C° 0 mm 4 mps 756 mmHg 60%
    16:00 +10°C° 0 mm 4 mps 757 mmHg 62%
    17:00 +8°C° 0 mm 4 mps 757 mmHg 64%
    18:00 +8°C° 0 mm 4 mps 758 mmHg 66%
    19:00 +8°C° 0 mm 4 mps 758 mmHg 66%
    20:00 +8°C° 0 mm 4 mps 758 mmHg 66%
    21:00 +8°C° 0 mm 4 mps 758 mmHg 65%
    22:00 +9°C° 0 mm 3 mps 758 mmHg 66%
    23:00 +8°C° 0 mm 3 mps 758 mmHg 67%
    Show more